When you browse on this site, cookies collect data to enhance your experience and personalize the content and advertising you see.
Visit our Privacy Policy to learn more. By continuing to use the site, you agree to this use of cookies and data.
  • In Deutschland
  • Länderverzeichnis
  • Für 7 Tage
  • Wassertemperatur
  • Wetterkarte
  • Widgets
  • user-avatar
    Anmelden

    Stündliche Wetter Frankfurt am Main

    Heute, 21 August, Mittwoch

    Zeit Temperatur Niederschläge Wind Luftdruck Luftfeuchtigkeit
    00:00 +16°C° 0 mm 1 m/S 760 mmHg 68%
    01:00 +16°C° 0 mm 1 m/S 760 mmHg 67%
    02:00 +15°C° 0 mm 1 m/S 760 mmHg 69%
    03:00 +14°C° 0 mm 0 m/S 760 mmHg 72%
    04:00 +13°C° 0 mm 0 m/S 760 mmHg 75%
    05:00 +14°C° 0 mm 0 m/S 761 mmHg 73%
    06:00 +15°C° 0 mm 0 m/S 761 mmHg 71%
    07:00 +15°C° 0 mm 0 m/S 761 mmHg 69%
    08:00 +17°C° 0 mm 0 m/S 761 mmHg 62%
    09:00 +19°C° 0 mm 0 m/S 761 mmHg 55%
    10:00 +22°C° 0 mm 0 m/S 761 mmHg 48%
    11:00 +23°C° 0 mm 0 m/S 761 mmHg 44%
    12:00 +24°C° 0 mm 0 m/S 761 mmHg 40%
    13:00 +25°C° 0 mm 0 m/S 761 mmHg 35%
    14:00 +27°C° 0 mm 1 m/S 760 mmHg 35%
    15:00 +27°C° 0 mm 1 m/S 760 mmHg 34%
    16:00 +27°C° 0 mm 1 m/S 759 mmHg 33%
    17:00 +25°C° 0 mm 1 m/S 759 mmHg 39%
    18:00 +24°C° 0 mm 2 m/S 759 mmHg 44%
    19:00 +21°C° 0 mm 2 m/S 759 mmHg 50%
    20:00 +20°C° 0 mm 2 m/S 759 mmHg 52%
    21:00 +19°C° 0 mm 2 m/S 760 mmHg 54%
    22:00 +19°C° 0 mm 1 m/S 760 mmHg 56%
    23:00 +19°C° 0 mm 1 m/S 760 mmHg 58%

    Morgen, 22 August, Donnerstag

    Zeit Temperatur Niederschläge Wind Luftdruck Luftfeuchtigkeit
    00:00 +19°C° 0 mm 1 m/S 760 mmHg 59%
    01:00 +17°C° 0 mm 2 m/S 760 mmHg 61%
    02:00 +16°C° 0 mm 1 m/S 760 mmHg 64%
    03:00 +16°C° 0 mm 1 m/S 759 mmHg 67%
    04:00 +15°C° 0 mm 1 m/S 759 mmHg 70%
    05:00 +16°C° 0 mm 1 m/S 759 mmHg 70%
    06:00 +16°C° 0 mm 1 m/S 760 mmHg 70%
    07:00 +18°C° 0 mm 1 m/S 760 mmHg 69%
    08:00 +20°C° 0 mm 1 m/S 760 mmHg 63%
    09:00 +21°C° 0 mm 2 m/S 760 mmHg 57%
    10:00 +24°C° 0 mm 2 m/S 760 mmHg 50%
    11:00 +25°C° 0 mm 2 m/S 759 mmHg 45%
    12:00 +26°C° 0 mm 2 m/S 759 mmHg 40%
    13:00 +27°C° 0 mm 2 m/S 759 mmHg 35%
    14:00 +28°C° 0 mm 2 m/S 758 mmHg 34%
    15:00 +28°C° 0 mm 2 m/S 758 mmHg 34%
    16:00 +28°C° 0 mm 1 m/S 758 mmHg 33%
    17:00 +27°C° 0 mm 1 m/S 758 mmHg 38%
    18:00 +25°C° 0 mm 1 m/S 758 mmHg 44%
    19:00 +24°C° 0 mm 1 m/S 758 mmHg 49%
    20:00 +23°C° 0 mm 1 m/S 758 mmHg 52%
    21:00 +22°C° 0 mm 1 m/S 758 mmHg 54%
    22:00 +21°C° 0 mm 1 m/S 759 mmHg 56%
    23:00 +20°C° 0 mm 1 m/S 759 mmHg 57%

    übermorgen, 23 August, Freitag

    Zeit Temperatur Niederschläge Wind Luftdruck Luftfeuchtigkeit
    00:00 +20°C° 0 mm 1 m/S 759 mmHg 59%
    01:00 +19°C° 0 mm 1 m/S 759 mmHg 60%
    02:00 +19°C° 0 mm 1 m/S 758 mmHg 62%
    03:00 +18°C° 0 mm 1 m/S 758 mmHg 64%
    04:00 +18°C° 0 mm 1 m/S 758 mmHg 67%
    05:00 +18°C° 0 mm 1 m/S 758 mmHg 66%
    06:00 +19°C° 0 mm 1 m/S 758 mmHg 66%
    07:00 +19°C° 0 mm 1 m/S 758 mmHg 65%
    08:00 +21°C° 0 mm 1 m/S 758 mmHg 60%
    09:00 +23°C° 0 mm 1 m/S 758 mmHg 54%
    10:00 +25°C° 0 mm 2 m/S 758 mmHg 48%
    11:00 +26°C° 0 mm 2 m/S 758 mmHg 44%
    12:00 +28°C° 0 mm 2 m/S 758 mmHg 40%
    13:00 +29°C° 0 mm 2 m/S 757 mmHg 36%
    14:00 +29°C° 0 mm 2 m/S 757 mmHg 35%
    15:00 +29°C° 0 mm 2 m/S 757 mmHg 35%
    16:00 +30°C° 0 mm 2 m/S 756 mmHg 34%
    17:00 +28°C° 0 mm 2 m/S 756 mmHg 39%
    18:00 +27°C° 0 mm 2 m/S 756 mmHg 44%
    19:00 +25°C° 0 mm 2 m/S 756 mmHg 49%
    20:00 +24°C° 0 mm 2 m/S 756 mmHg 51%
    21:00 +23°C° 0 mm 2 m/S 756 mmHg 54%
    22:00 +21°C° 0 mm 2 m/S 756 mmHg 57%
    23:00 +20°C° 0 mm 2 m/S 756 mmHg 59%

    24 August, Samstag

    Zeit Temperatur Niederschläge Wind Luftdruck Luftfeuchtigkeit
    00:00 +20°C° 0 mm 1 m/S 756 mmHg 61%
    01:00 +20°C° 0 mm 1 m/S 756 mmHg 63%
    02:00 +19°C° 0 mm 1 m/S 756 mmHg 65%
    03:00 +19°C° 0 mm 1 m/S 756 mmHg 66%
    04:00 +18°C° 0 mm 1 m/S 756 mmHg 67%
    05:00 +19°C° 0 mm 1 m/S 755 mmHg 67%
    06:00 +19°C° 0 mm 1 m/S 755 mmHg 66%
    07:00 +20°C° 0 mm 1 m/S 755 mmHg 66%
    08:00 +21°C° 0 mm 1 m/S 755 mmHg 60%
    09:00 +23°C° 0 mm 1 m/S 755 mmHg 55%
    10:00 +25°C° 0 mm 1 m/S 756 mmHg 49%
    11:00 +27°C° 0 mm 1 m/S 755 mmHg 45%
    12:00 +28°C° 0 mm 1 m/S 755 mmHg 41%
    13:00 +30°C° 0 mm 1 m/S 755 mmHg 37%
    14:00 +30°C° 0 mm 1 m/S 754 mmHg 37%
    15:00 +30°C° 0 mm 1 m/S 754 mmHg 37%
    16:00 +31°C° 0 mm 1 m/S 753 mmHg 37%
    17:00 +29°C° 0 mm 1 m/S 753 mmHg 43%
    18:00 +28°C° 0 mm 1 m/S 753 mmHg 49%
    19:00 +27°C° 0 mm 1 m/S 753 mmHg 55%
    20:00 +25°C° 0 mm 1 m/S 753 mmHg 59%
    21:00 +24°C° 0 mm 1 m/S 754 mmHg 63%
    22:00 +23°C° 0 mm 1 m/S 754 mmHg 66%
    23:00 +23°C° 0 mm 1 m/S 754 mmHg 69%

    25 August, Sonntag

    Zeit Temperatur Niederschläge Wind Luftdruck Luftfeuchtigkeit
    00:00 +22°C° 0 mm 1 m/S 753 mmHg 72%
    01:00 +22°C° 0 mm 1 m/S 753 mmHg 75%
    02:00 +21°C° 0 mm 1 m/S 753 mmHg 77%
    03:00 +21°C° 0 mm 1 m/S 753 mmHg 80%
    04:00 +21°C° 0 mm 1 m/S 753 mmHg 82%
    05:00 +21°C° 0 mm 1 m/S 753 mmHg 80%
    06:00 +22°C° 0 mm 1 m/S 753 mmHg 79%
    07:00 +22°C° 0 mm 1 m/S 753 mmHg 77%
    08:00 +24°C° 0 mm 1 m/S 753 mmHg 70%
    09:00 +26°C° 0 mm 1 m/S 753 mmHg 63%
    10:00 +29°C° 0 mm 1 m/S 753 mmHg 57%
    11:00 +30°C° 0 mm 1 m/S 753 mmHg 52%
    12:00 +31°C° 0 mm 1 m/S 753 mmHg 48%
    13:00 +33°C° 0 mm 1 m/S 753 mmHg 43%
    14:00 +33°C° 0 mm 1 m/S 752 mmHg 42%
    15:00 +33°C° 0 mm 1 m/S 752 mmHg 41%
    16:00 +33°C° 0 mm 1 m/S 752 mmHg 39%
    17:00 +31°C° 0 mm 1 m/S 752 mmHg 44%
    18:00 +30°C° 0 mm 1 m/S 752 mmHg 48%
    19:00 +28°C° 0 mm 1 m/S 751 mmHg 53%
    20:00 +25°C° 0 mm 0 m/S 752 mmHg 56%
    21:00 +24°C° 0 mm 0 m/S 752 mmHg 58%
    22:00 +23°C° 0 mm 0 m/S 752 mmHg 61%
    23:00 +23°C° 0 mm 0 m/S 752 mmHg 63%

    26 August, Montag

    Zeit Temperatur Niederschläge Wind Luftdruck Luftfeuchtigkeit
    00:00 +22°C° 0 mm 0 m/S 752 mmHg 66%
    01:00 +22°C° 0 mm 0 m/S 752 mmHg 68%
    02:00 +21°C° 0 mm 0 m/S 752 mmHg 70%
    03:00 +21°C° 0 mm 0 m/S 752 mmHg 72%
    04:00 +21°C° 0 mm 0 m/S 752 mmHg 74%
    05:00 +21°C° 0 mm 0 m/S 752 mmHg 73%
    06:00 +23°C° 0 mm 1 m/S 752 mmHg 72%
    07:00 +24°C° 0 mm 1 m/S 752 mmHg 72%
    08:00 +26°C° 0 mm 1 m/S 752 mmHg 64%
    09:00 +28°C° 0 mm 2 m/S 752 mmHg 56%
    10:00 +30°C° 0 mm 2 m/S 752 mmHg 49%
    11:00 +31°C° 0 mm 2 m/S 752 mmHg 43%
    12:00 +32°C° 0 mm 2 m/S 752 mmHg 38%
    13:00 +34°C° 0 mm 3 m/S 752 mmHg 32%
    14:00 +34°C° 0 mm 3 m/S 752 mmHg 33%
    15:00 +35°C° 0 mm 3 m/S 752 mmHg 33%
    16:00 +35°C° 0 mm 3 m/S 751 mmHg 33%
    17:00 +33°C° 0 mm 3 m/S 752 mmHg 38%
    18:00 +31°C° 0 mm 3 m/S 752 mmHg 43%
    19:00 +29°C° 0 mm 3 m/S 752 mmHg 48%
    20:00 +28°C° 0.1 mm 3 m/S 752 mmHg 55%
    21:00 +26°C° 0.1 mm 3 m/S 753 mmHg 62%
    22:00 +24°C° 0.1 mm 3 m/S 754 mmHg 69%
    23:00 +23°C° 0 mm 2 m/S 754 mmHg 71%
    Mehr zeigen